Location: Waning Moon II Observatory
(30.3730°N, 89.7620°W)
Time: 11:15:06
(UTC-05:00)

Daily predictions for brighter satellites

Satellite Brightness Start Highest point End
(mag) Time Altitude Azimuth Time Altitude Azimuth Time Altitude Azimuth
Cosmos 1943 3.7 19:14:38 10° SSW 19:20:15 69° WNW 19:25:56 10° NNE
Cosmos 2292 Rocket 3.6 19:22:07 10° SSW 19:25:57 61° W 19:29:05 10° N
FALCON 9 R/B 1.3 19:25:05 10° W 19:27:29 58° N 19:32:24 10° ENE
Cosmos 468 Rocket 3.9 19:23:11 10° S 19:28:20 76° ESE 19:33:34 10° NNE
Cosmos 332 Rocket 4.1 19:24:34 10° SSW 19:29:27 77° WNW 19:34:20 10° NNE
NOAA 12 4.1 19:24:32 10° SSE 19:29:42 68° ENE 19:34:55 10° N
Cosmos 841 Rocket 4.2 19:26:04 10° SSE 19:30:27 29° E 19:34:49 10° NE
SJ-6B 4.1 19:27:49 10° SE 19:31:03 23° ENE 19:34:14 10° NNE
Cosmos 371 Rocket 3.5 19:30:57 10° SSW 19:35:48 80° WNW 19:40:42 10° NNE
Cosmos 1378 4.5 19:34:53 10° NNE 19:37:46 21° ENE 19:40:38 10° SE
USA 229 DEB 4.4 19:34:10 10° NNW 19:40:46 37° NE 19:46:57 12° ESE
USA 229 4.5 19:34:17 10° NNW 19:40:51 36° NE 19:46:59 12° ESE
HJ-1C 4.4 19:41:25 10° SE 19:44:14 26° ENE 19:47:04 10° NNE
Cosmos 2058 Rocket 3.3 19:40:43 10° SSE 19:44:50 44° E 19:48:59 10° NNE
Cosmos 2084 3.3 19:43:46 10° SSW 19:47:55 61° ESE 19:51:53 10° NE
Cosmos 1606 Rocket 3.5 19:43:38 10° S 19:48:00 87° W 19:52:22 10° N
Cosmos 2228 3.2 19:45:29 10° SSE 19:49:40 47° E 19:53:52 10° NNE
Cosmos 489 Rocket 4.4 19:46:24 10° NNW 19:52:40 80° ENE 19:58:57 10° SSE
Cosmos 1763 Rocket 3.3 19:48:15 10° S 19:53:17 71° ESE 19:58:23 10° NNE
Thor Agena Rocket 4.1 19:48:22 10° N 19:53:32 62° WNW 19:58:37 10° SSW
Cosmos 1953 Rocket 3.6 19:49:49 10° N 19:54:03 51° E 19:58:14 10° SSE
Shenzhou-11 Module 2.7 19:52:22 10° WNW 19:55:20 49° SW 19:57:18 18° SSE
Cosmos 540 Rocket 4.2 19:58:28 10° SSE 20:02:43 28° E 20:07:01 10° NE
ATLAS CENTAUR R/B 4.0 19:51:56 10° NNW 20:02:45 32° NNE 20:05:47 20° ENE
Meteor 2-5 Rocket 3.9 20:01:01 10° N 20:06:46 54° E 20:12:20 10° SSE
H-2A R/B 2.5 20:06:29 10° SSE 20:10:10 89° E 20:13:54 10° N
GEOS 3 Rocket 3.7 20:04:56 10° NE 20:10:14 58° ESE 20:15:29 10° SSW
Meteor 1-22 Rocket 4.4 20:04:53 10° SSE 20:10:33 51° E 20:16:00 10° NNE
Cosmos 1943 Rocket 2.1 20:07:15 10° NNW 20:12:51 75° ENE 20:17:55 13° SSE
EXPRESS MD2 3.4 20:10:05 10° NW 20:13:07 79° SW 20:16:17 23° SE
Meteor 2-13 Rocket 4.5 20:07:48 10° S 20:13:56 82° W 20:20:02 10° N
Spot 2 Rocket 4.2 20:12:52 29° E 20:13:56 31° ENE 20:18:22 10° N
Cosmos 1825 Rocket 4.3 20:10:04 10° NNW 20:14:23 56° W 20:18:43 10° S
BREEZE-M DEB (TANK) 4.4 19:58:56 10° WSW 20:16:44 68° NW 20:21:11 13° NE
Cosmos 1766 3.4 20:14:36 10° SSE 20:18:26 50° E 20:22:14 10° NNE
Cosmos 2181 Rocket 4.0 20:12:21 10° N 20:18:33 81° W 20:24:40 10° S
OAO 3 Copernicus 4.4 20:15:10 10° W 20:20:12 71° NNW 20:22:40 30° ENE
GPS 2-04 Rocket1 2.9 20:17:11 10° WNW 20:21:28 73° SSW 20:22:45 43° SE
SWIFT 4.1 20:20:07 10° SW 20:23:10 19° S 20:23:59 18° S
FengYun 1-2 T 4.5 20:18:53 10° S 20:24:29 72° WSW 20:30:05 10° NNW
Centaur AC-112 4.1 20:21:12 10° SW 20:25:41 19° S 20:26:03 19° S
Cosmos 2154 Rocket 4.4 20:22:07 20° SE 20:25:53 39° E 20:31:35 10° NNE
COSMOS 2406 3.1 20:21:11 10° S 20:26:47 64° ESE 20:32:26 10° NNE
Cosmos 304 Rocket 3.9 20:24:17 10° SSW 20:29:02 73° WNW 20:33:49 10° NNE
Cosmos 1898 Rocket 3.9 20:24:52 10° NNW 20:29:59 63° WSW 20:35:04 10° S
Tiangong 2 1.8 20:27:30 10° WNW 20:30:35 46° SW 20:30:35 46° SW
USA 81 4.4 20:28:01 10° N 20:33:15 66° W 20:38:28 10° S
Cosmos 2074 Rocket 4.0 20:27:05 10° S 20:33:18 85° W 20:39:32 10° N
Cosmos 1707 3.6 20:31:21 10° NNW 20:35:10 49° W 20:38:57 10° SSW
Resurs 1-3 3.5 20:40:34 67° ENE 20:40:34 67° ENE 20:44:51 10° N
Cosmos 2150 Rocket 4.2 20:40:11 10° NNW 20:45:31 74° WSW 20:48:15 30° S
Envisat 2.9 20:45:42 63° E 20:45:49 63° ENE 20:50:50 10° N
Cosmos 990 Rocket 4.1 20:40:47 10° NNW 20:45:55 73° WSW 20:48:07 34° S
Cosmos 2369 Rocket 4.1 20:43:00 10° NW 20:47:38 27° WSW 20:52:16 10° SSW
Cosmos 1356 Rocket 3.4 20:45:08 10° N 20:49:19 81° WNW 20:49:19 81° WNW
OAO 2 Rocket 4.2 20:48:57 10° W 20:53:54 40° SSW 20:54:34 38° S
Lacrosse 5 3.4 20:49:46 10° WNW 20:54:10 30° WSW 20:56:38 20° SSW
Resurs 01 Rocket 1.7 20:54:17 74° WSW 20:54:26 74° WSW 20:58:52 10° NNW
Cosmos 1656 Rocket 3.5 20:49:52 10° NNW 20:55:30 72° ENE 20:55:34 72° ENE
Yuri Rocket 4.3 20:57:12 10° WSW 20:59:38 31° SW 20:59:38 31° SW
BREEZE-M (TANK) 3.3 20:57:32 10° NW 21:05:13 63° NNW 21:05:13 63° NNW
Nadezhda 3 Rocket 4.2 21:00:16 10° N 21:05:25 53° NE 21:05:25 53° NE
GP-B 4.3 21:06:34 10° N 21:09:18 36° NNW 21:09:18 36° NNW
In-Cosmos 22 4.3 21:06:35 10° NNW 21:12:17 76° W 21:12:39 72° SW
Milstar 3 Cent rocket 3.5 21:23:42 10° WSW 21:25:52 27° WSW 21:25:52 27° WSW
NOSS 3-1 (A) 4.0 21:28:46 10° NNW 21:36:22 79° NNE 21:36:22 79° NNE
NOSS 3-1 (C) 4.3 21:39:38 10° NW 21:47:33 67° WSW 21:47:50 66° SW
